Temperature
26 26 27 26 26 26 25 25 24 25 25 26 26 26 26 26 25 25 24 23 22 21 20 19 18 18 17 17 16 16 15 15 15 14 14 14 14 14 13 13 13 13 13 13
25 26 26 26 26 26 26 26 25 25 25 27 27 27 26 26 25 25 24 23 22 21 20 19 18 18 17 17 16 16 15 15 15 15 14 14 14 14 14 13 13 13 13 13
24 25 25 25 26 26 26 26 26 25 25 26 26 26 26 26 25 24 24 23 23 22 21 20 19 19 18 17 17 16 16 15 15 15 15 14 14 14 14 14 14 14 13 13
24 24 23 25 27 27 26 26 26 26 26 26 26 26 26 25 25 24 23 23 23 22 22 21 20 19 18 18 17 16 16 16 15 15 15 15 14 14 14 14 14 14 14 13
23 23 24 26 26 26 25 25 26 25 25 25 25 26 25 25 24 24 23 23 23 22 22 21 20 20 19 18 17 17 16 16 16 15 15 15 15 15 14 14 14 14 14 13
23 22 22 24 26 26 25 24 25 25 24 24 24 23 23 24 24 23 23 22 22 22 22 21 21 20 19 18 18 17 17 16 16 16 15 15 15 15 15 14 14 14 14 13
22 22 23 24 25 25 23 22 23 23 23 23 23 22 23 23 23 22 22 22 22 22 21 21 21 20 19 19 18 18 17 16 16 16 15 15 15 15 14 14 14 14 14 13
23 22 22 24 24 23 22 23 22 22 22 22 22 22 21 22 22 22 21 21 21 21 21 21 20 20 19 19 18 18 17 17 16 16 15 15 15 15 14 14 14 13 13 13
23 22 23 23 22 21 21 21 21 20 20 20 20 20 20 21 21 21 21 21 20 20 20 20 20 20 19 19 18 18 17 17 16 16 15 15 15 15 14 14 13 13 13 13
21 22 22 21 21 20 20 19 19 19 19 19 19 19 19 19 20 20 20 20 20 20 19 19 19 19 19 19 18 18 17 17 16 16 15 15 15 14 14 14 13 13 13 13
20 20 20 20 19 18 18 18 18 18 18 18 18 18 18 18 19 19 19 19 19 19 19 19 19 19 19 18 18 18 17 17 16 15 15 15 14 14 14 14 13 13 13 13
18 18 18 18 17 17 17 17 17 17 17 17 17 17 17 17 18 18 18 18 18 18 18 18 18 18 18 18 18 17 17 16 16 15 15 15 14 14 13 13 13 13 13 12
16 16 16 16 16 15 15 15 15 15 15 16 16 16 16 16 16 17 17 17 18 18 18 18 18 18 18 18 18 17 17 16 16 15 15 15 14 14 13 13 13 12 12 12
14 14 15 14 14 14 14 14 14 14 14 14 15 15 15 15 15 15 16 16 17 17 17 17 17 17 17 17 17 17 17 16 16 16 15 15 14 14 13 13 12 12 12 11
13 13 13 13 13 13 13 13 13 13 13 13 13 13 13 14 14 14 15 15 16 16 17 17 17 17 17 17 17 17 16 16 16 16 15 14 14 13 12 12 12 12 11 11
12 12 12 12 12 12 12 12 12 12 12 12 12 12 12 13 13 13 14 14 15 15 16 16 16 16 17 17 16 16 16 16 16 15 14 14 13 12 12 11 11 11 11 10
11 11 11 11 11 11 11 11 11 11 11 11 11 11 11 12 12 12 13 13 14 14 15 15 15 16 16 16 16 16 16 15 15 15 14 13 13 12 12 11 11 10 10 10
10 10 10 10 10 10 10 10 10 10 10 11 11 11 11 11 11 11 12 12 13 14 14 14 15 15 15 15 15 15 15 15 14 14 13 13 12 12 11 11 10 10 9 9
10 9 9 9 9 9 9 10 10 10 10 10 10 10 10 10 10 11 11 11 12 12 13 13 14 14 14 14 14 14 14 14 14 13 13 12 12 11 11 10 10 10 9 9
9 9 9 9 9 9 9 9 9 9 9 9 9 9 9 9 10 10 10 10 11 12 12 12 13 13 13 13 13 13 13 13 13 12 12 11 11 11 10 10 10 9 9 8
9 9 9 9 9 9 9 9 9 9 9 9 9 9 9 9 9 9 9 10 10 11 11 12 12 12 12 12 12 12 12 12 12 12 11 11 11 10 10 9 9 9 8 8
9 9 9 8 8 8 9 9 9 9 9 9 9 8 8 8 8 8 9 9 9 10 11 11 11 11 11 11 11 11 11 11 11 11 11 10 10 10 9 9 8 8 8 7
8 8 8 8 8 8 8 8 8 8 8 8 8 8 8 8 8 8 8 8 9 9 10 10 10 10 10 10 10 10 10 10 10 10 10 10 10 9 9 8 8 7 7 7
8 8 8 8 8 8 8 8 8 8 8 8 8 8 7 7 7 7 7 8 8 8 9 9 9 9 9 9 9 9 9 9 9 9 9 9 9 9 8 8 7 7 6 6
7 7 7 7 7 7 7 7 7 7 7 7 7 7 7 7 7 7 7 7 7 7 8 8 8 8 8 8 8 8 8 8 8 8 8 8 8 8 7 7 7 6 6 6
7 7 7 7 7 7 7 7 7 7 7 7 6 6 6 6 6 6 6 6 6 6 7 7 7 7 7 7 7 7 7 7 7 7 7 7 7 7 7 6 6 6 5 5
7 7 7 7 7 6 6 6 6 6 6 6 6 6 6 5 5 5 5 5 6 6 6 6 6 6 6 6 7 7 6 6 6 6 6 6 6 6 6 6 5 5 5 4
Wind_Speed
11 11 11 11 11 10 11 11 12 12 12 10 7 5 4 3 4 6 8 10 11 11 10 10 10 9 9 8 9 8 8 6 5 4 4 3 2 1 0 1 2 2 3 3
13 13 13 14 13 12 12 12 13 13 12 9 7 5 4 3 4 5 7 9 10 12 12 12 11 11 10 9 9 9 9 8 6 4 4 4 3 2 2 1 1 1 2 2
13 13 14 12 9 8 8 9 9 10 9 8 7 6 4 3 2 4 5 7 9 11 12 12 12 12 11 10 10 9 9 8 8 6 5 4 4 3 2 2 2 1 1 1
12 13 13 6 4 5 7 8 7 7 7 8 7 6 2 2 2 3 4 5 8 9 10 11 11 11 11 10 10 10 9 9 8 7 6 5 4 3 3 3 3 2 2 2
10 12 11 8 5 4 5 6 7 7 8 9 9 6 2 3 2 2 3 3 5 7 9 11 11 11 11 11 11 10 9 9 9 9 7 7 6 5 4 3 2 2 2 3
9 11 11 6 5 4 4 3 9 9 10 10 9 6 6 8 4 3 1 2 3 5 6 9 10 11 12 12 11 11 10 9 9 9 8 7 6 5 4 3 4 3 2 2
10 12 8 5 6 5 3 6 10 11 11 11 9 8 9 9 6 4 2 1 2 4 5 6 9 10 11 11 12 11 10 9 8 8 8 7 6 4 4 4 3 3 3 3
8 10 4 8 6 6 7 9 11 12 11 11 11 10 11 10 7 5 3 2 2 3 4 5 7 10 10 10 10 10 10 9 8 8 8 7 6 5 4 3 3 4 4 3
8 6 6 6 6 8 10 12 12 12 12 13 12 11 11 10 8 5 4 3 3 4 5 5 7 9 10 9 9 11 11 10 9 8 7 6 6 5 4 3 3 3 3 2
12 11 11 10 11 10 12 12 13 13 13 13 13 13 12 11 9 7 5 4 4 5 6 6 7 9 9 9 11 11 11 10 9 8 8 7 5 4 3 2 2 2 2 2
16 14 13 11 13 15 16 15 14 14 13 13 13 14 13 12 11 8 6 5 5 6 7 8 8 8 9 10 12 11 12 11 10 8 8 7 5 3 3 3 2 2 2 2
12 12 12 14 14 16 16 16 16 15 14 13 13 14 14 12 10 10 9 7 6 7 7 8 8 9 9 10 12 12 11 11 9 8 8 8 8 6 9 7 8 9 8 6
12 14 14 15 16 15 15 16 15 15 15 15 13 13 13 12 10 10 11 10 8 8 8 8 9 9 10 10 12 12 11 11 9 9 9 9 9 9 7 5 8 9 8 9
11 12 13 13 14 14 15 15 15 15 14 14 13 13 12 12 12 12 12 11 10 9 8 9 9 9 10 10 11 11 11 12 11 9 9 9 9 9 9 8 6 4 4 7
10 11 12 13 13 13 14 14 15 14 14 14 14 13 13 13 14 14 13 12 11 10 9 9 9 9 8 10 11 11 10 9 9 9 9 9 9 9 8 9 8 7 6 4
10 11 11 12 13 14 14 15 14 14 15 15 14 14 14 14 14 14 13 11 11 11 10 9 9 7 7 9 9 9 8 12 12 9 9 8 8 8 8 8 9 9 8 7
9 10 11 13 14 14 15 15 15 15 15 15 15 15 15 15 14 13 13 12 12 11 10 9 7 6 7 9 9 7 8 10 14 10 9 9 8 8 8 8 8 8 7 8
8 10 11 13 14 15 15 16 15 16 15 15 16 15 14 14 15 14 14 14 13 11 9 7 6 6 7 8 8 7 8 9 9 9 8 8 8 8 8 8 9 9 8 7
10 11 12 13 14 14 15 15 15 15 15 15 15 15 15 14 14 14 14 14 12 11 9 6 7 7 7 8 8 6 8 10 9 8 8 10 10 8 8 8 9 9 9 8
11 12 14 15 15 15 15 15 15 15 14 14 14 14 15 14 14 14 14 13 10 8 8 7 6 7 8 9 9 6 8 10 10 9 8 9 9 9 9 9 10 10 9 8
12 13 15 15 15 15 15 16 15 14 14 13 13 13 14 14 13 13 12 11 10 8 7 7 6 6 6 8 9 7 8 9 10 10 10 9 9 9 9 9 10 9 9 8
13 13 15 15 16 16 15 14 14 14 13 12 12 12 12 13 13 12 12 9 9 8 5 4 4 6 7 8 6 6 8 9 9 9 9 9 9 10 10 10 9 9 9 8
14 14 15 16 16 16 16 15 14 13 12 11 11 11 11 11 10 10 10 8 7 8 6 4 5 6 7 7 6 6 7 8 8 9 9 9 9 9 10 10 9 9 9 8
15 15 15 16 16 16 16 14 13 11 11 10 9 9 9 9 8 8 7 9 10 9 6 5 5 6 7 5 5 6 7 7 7 8 8 8 8 8 9 9 9 9 9 10
15 15 16 15 15 12 13 13 13 11 10 8 8 8 7 6 7 8 8 7 9 8 5 4 6 7 6 4 5 5 6 7 7 7 7 8 8 8 8 9 9 9 9 9
15 13 12 13 12 10 10 9 9 8 8 7 6 6 6 6 7 7 6 6 7 6 4 3 3 5 4 4 5 6 6 7 9 8 8 8 8 8 8 9 11 9 8 8
14 12 10 10 9 8 8 8 8 8 7 7 7 6 7 7 7 7 7 5 5 4 3 2 2 3 3 4 5 6 7 7 7 7 8 8 8 8 9 10 8 8 8 8
Wind_Direction
297 297 295 287 284 277 268 269 278 289 296 305 312 306 285 257 218 194 188 185 181 177 180 179 181 185 184 177 172 173 171 181 191 190 170 167 164 172 223 331 340 352 9 15
293 293 292 285 277 268 265 266 270 278 284 297 304 308 297 263 238 212 200 198 192 185 185 185 187 188 185 179 177 175 175 179 177 185 170 167 176 180 195 206 305 344 359 7
298 301 295 282 283 281 280 284 285 287 300 315 312 305 299 286 244 228 218 209 200 193 189 188 191 188 184 180 178 178 178 176 174 182 178 176 187 183 195 194 216 264 282 290
291 294 285 293 304 291 292 293 300 306 324 330 316 305 319 325 286 239 229 218 204 197 190 186 188 182 176 173 176 180 180 175 174 177 179 179 186 195 204 207 197 206 227 229
279 283 285 294 314 334 322 320 347 345 352 351 345 325 333 359 334 291 249 230 213 202 190 184 185 178 173 175 179 182 180 178 176 177 180 182 188 196 198 213 220 206 211 223
272 283 287 316 4 2 311 316 13 7 6 359 356 344 342 350 347 323 297 241 221 202 194 185 181 173 175 180 182 184 179 180 178 175 173 180 189 191 189 200 213 215 220 215
267 275 283 5 12 342 316 8 11 9 7 3 354 343 337 343 345 326 313 266 229 210 201 189 175 169 179 184 188 181 172 173 170 165 169 178 182 184 196 201 200 207 221 220
281 277 292 28 9 5 355 358 3 359 357 352 342 338 338 336 331 318 307 259 228 225 212 193 177 174 185 192 183 163 158 162 166 167 176 178 171 184 199 190 197 215 220 218
304 314 346 2 4 1 356 349 351 351 348 343 336 332 330 325 318 303 284 262 232 231 221 204 190 184 192 188 165 155 157 164 169 171 172 163 165 178 188 189 198 213 200 186
303 308 326 338 348 353 353 345 341 341 338 336 330 327 325 322 316 304 280 257 234 227 222 216 204 196 196 177 164 161 165 170 173 176 169 161 157 164 166 172 185 197 175 148
296 309 321 335 347 347 342 339 335 331 327 326 323 320 319 316 313 309 295 271 241 231 227 222 212 204 195 180 170 173 174 176 178 174 163 152 128 93 116 88 111 131 107 90
296 319 319 322 334 338 335 333 331 328 325 324 322 318 315 312 311 307 301 285 267 243 232 227 219 210 196 187 179 182 184 181 176 167 158 148 136 109 67 89 90 88 92 103
313 323 318 319 327 332 329 328 327 325 322 321 322 321 318 313 311 309 302 293 274 260 241 232 225 214 200 191 187 189 186 177 170 167 164 161 156 152 142 97 78 81 94 106
327 326 319 325 324 328 327 326 323 319 321 322 321 320 318 315 313 309 302 296 286 271 255 237 229 218 202 193 189 192 189 179 170 167 165 167 166 164 160 158 152 128 107 125
327 325 319 321 322 324 325 325 324 323 323 322 321 320 318 316 312 307 304 300 294 278 261 246 235 220 197 191 190 191 187 175 168 165 164 166 164 162 162 162 153 147 143 148
324 322 321 323 323 324 324 322 320 319 319 319 318 318 316 311 307 305 304 301 295 283 268 254 241 218 193 190 191 190 185 175 164 162 164 164 164 164 162 158 154 157 160 160
318 319 322 321 320 320 320 318 316 314 314 315 315 314 313 312 310 308 306 303 294 284 273 257 242 215 196 191 189 186 173 170 167 165 168 167 166 165 161 158 158 155 151 155
314 312 312 312 313 313 314 313 312 312 312 312 314 314 312 312 309 307 304 304 299 290 276 257 237 215 200 192 191 187 173 168 172 171 166 165 164 161 157 156 153 143 140 148
312 310 309 307 306 305 306 307 307 307 307 308 309 310 309 307 306 306 305 301 295 287 279 262 236 220 203 192 188 183 172 168 171 170 164 162 162 160 158 156 150 145 148 151
309 309 309 308 307 306 304 304 304 304 304 305 306 306 306 306 307 307 303 296 286 282 281 267 242 221 202 190 185 184 175 171 172 170 165 165 166 161 157 153 149 150 153 155
301 303 304 305 305 305 304 303 302 301 303 303 302 302 303 305 306 305 302 298 294 291 283 259 238 223 201 188 184 187 179 175 174 170 166 166 165 158 155 152 151 153 154 153
297 300 302 302 302 303 304 303 302 300 300 299 300 301 304 305 305 303 297 294 296 292 282 254 241 221 202 187 190 187 179 174 169 164 163 163 162 158 156 153 152 151 150 148
296 299 302 303 303 303 303 304 303 303 302 303 304 305 304 301 300 299 299 302 304 297 288 261 247 218 196 186 186 182 175 170 166 162 160 160 158 155 153 150 148 146 146 144
300 300 300 301 302 302 302 304 305 306 305 305 303 302 303 303 303 303 301 308 314 303 289 260 227 196 178 186 181 176 173 165 159 156 154 153 152 150 148 147 145 143 143 141
296 296 297 300 301 301 302 305 306 306 306 304 302 303 301 298 299 305 307 307 307 301 293 259 222 196 187 185 176 168 163 157 152 149 151 149 146 145 145 144 144 143 143 143
294 293 293 293 294 295 298 299 300 301 303 305 306 307 307 305 303 304 303 304 303 299 292 263 220 203 194 179 167 159 153 152 149 147 147 144 141 140 142 143 141 142 142 141
291 291 289 291 292 294 297 298 299 300 301 303 305 309 312 311 307 304 303 304 307 299 290 265 219 212 192 163 153 150 148 147 145 143 142 140 139 138 140 140 140 139 139 140
Height
1463 1459 1459 1460 1461 1461 1464 1466 1471 1466 1462 1455 1451 1450 1450 1451 1452 1453 1456 1458 1460 1463 1465 1468 1470 1472 1474 1476 1477 1479 1480 1481 1482 1484 1485 1485 1485 1486 1486 1486 1486 1486 1485 1485
1465 1458 1457 1459 1456 1456 1457 1457 1458 1458 1456 1448 1447 1447 1448 1448 1449 1451 1452 1454 1456 1459 1461 1463 1466 1468 1471 1473 1475 1476 1478 1479 1480 1482 1483 1483 1484 1484 1485 1485 1485 1485 1485 1485
1471 1461 1460 1463 1453 1451 1452 1450 1451 1456 1452 1445 1445 1445 1446 1446 1447 1448 1449 1451 1452 1454 1456 1459 1461 1464 1466 1469 1472 1474 1475 1476 1478 1479 1480 1481 1482 1483 1483 1484 1484 1484 1484 1484
1469 1469 1477 1458 1444 1444 1448 1447 1446 1446 1445 1444 1444 1443 1444 1445 1445 1446 1446 1447 1448 1450 1452 1454 1458 1460 1463 1466 1468 1470 1472 1474 1475 1477 1478 1479 1480 1481 1482 1482 1483 1483 1483 1483
1471 1474 1466 1452 1445 1444 1449 1450 1446 1446 1445 1445 1443 1442 1443 1443 1444 1444 1444 1444 1445 1446 1448 1451 1454 1456 1459 1462 1465 1467 1469 1471 1472 1474 1475 1476 1478 1479 1480 1480 1481 1481 1481 1481
1469 1475 1475 1457 1446 1444 1448 1454 1449 1448 1447 1447 1445 1448 1446 1443 1442 1442 1442 1442 1443 1444 1445 1447 1450 1453 1455 1458 1460 1462 1465 1467 1469 1471 1472 1474 1475 1476 1477 1478 1479 1479 1479 1479
1469 1470 1461 1452 1449 1447 1460 1462 1453 1451 1451 1450 1450 1451 1448 1445 1443 1442 1441 1440 1441 1441 1443 1444 1446 1449 1451 1454 1456 1458 1461 1464 1466 1468 1469 1471 1472 1473 1474 1475 1476 1477 1477 1477
1464 1468 1467 1454 1453 1457 1460 1456 1454 1454 1453 1452 1451 1449 1447 1445 1443 1441 1440 1439 1439 1439 1440 1441 1443 1445 1447 1450 1452 1455 1457 1460 1462 1464 1466 1467 1469 1470 1471 1472 1473 1474 1475 1475
1461 1463 1457 1456 1457 1459 1458 1457 1456 1455 1454 1453 1450 1448 1446 1444 1442 1440 1439 1437 1437 1436 1437 1438 1439 1441 1443 1445 1448 1450 1453 1455 1458 1460 1462 1464 1465 1467 1468 1469 1470 1471 1472 1473
1460 1456 1456 1457 1457 1457 1458 1457 1456 1455 1454 1452 1450 1447 1445 1442 1440 1438 1436 1435 1434 1434 1433 1434 1435 1436 1438 1441 1443 1446 1448 1451 1453 1456 1458 1460 1461 1463 1464 1465 1466 1468 1469 1469
1461 1459 1458 1457 1458 1458 1457 1456 1454 1453 1452 1450 1448 1445 1443 1440 1438 1435 1433 1432 1431 1430 1429 1429 1430 1432 1434 1436 1438 1441 1443 1446 1448 1451 1453 1455 1457 1459 1460 1461 1463 1464 1465 1466
1465 1463 1463 1460 1459 1458 1456 1455 1453 1451 1449 1447 1446 1443 1440 1437 1435 1432 1430 1428 1426 1426 1425 1425 1426 1427 1428 1430 1433 1435 1438 1440 1443 1446 1448 1450 1452 1454 1456 1458 1459 1460 1462 1463
1465 1463 1462 1460 1458 1457 1455 1453 1452 1450 1447 1444 1442 1440 1437 1434 1431 1428 1426 1424 1422 1420 1420 1420 1420 1421 1422 1424 1427 1429 1432 1434 1437 1440 1442 1444 1446 1449 1451 1453 1455 1456 1458 1459
1464 1462 1460 1458 1457 1455 1453 1451 1449 1447 1444 1442 1439 1436 1433 1430 1426 1424 1421 1419 1417 1415 1414 1414 1414 1415 1416 1418 1420 1423 1426 1429 1431 1433 1436 1439 1441 1444 1446 1448 1450 1452 1454 1455
1462 1461 1459 1457 1455 1453 1451 1448 1446 1443 1441 1438 1435 1432 1429 1425 1422 1419 1416 1413 1411 1409 1408 1407 1407 1408 1409 1411 1413 1416 1419 1422 1425 1427 1430 1433 1436 1439 1442 1444 1446 1448 1450 1451
1460 1458 1457 1455 1453 1451 1448 1446 1443 1440 1437 1434 1431 1428 1424 1421 1417 1414 1411 1408 1406 1403 1402 1401 1400 1401 1402 1404 1406 1410 1413 1416 1418 1421 1424 1428 1431 1434 1437 1439 1441 1443 1445 1448
1458 1456 1455 1453 1450 1448 1446 1443 1440 1437 1433 1430 1426 1423 1419 1415 1411 1408 1405 1402 1399 1397 1395 1395 1394 1394 1396 1397 1399 1402 1406 1409 1412 1415 1418 1422 1425 1428 1431 1434 1437 1439 1441 1444
1456 1454 1453 1451 1448 1445 1442 1439 1436 1433 1429 1425 1422 1418 1414 1410 1406 1402 1399 1395 1392 1390 1389 1388 1388 1388 1389 1391 1393 1396 1399 1402 1405 1409 1412 1416 1419 1423 1426 1429 1432 1435 1437 1440
1452 1451 1449 1447 1444 1441 1438 1434 1431 1427 1424 1421 1417 1413 1409 1405 1402 1397 1393 1390 1386 1384 1382 1381 1381 1382 1382 1384 1387 1389 1392 1395 1399 1403 1407 1410 1414 1417 1421 1424 1427 1430 1433 1436
1449 1447 1445 1442 1439 1436 1433 1429 1426 1422 1418 1415 1412 1408 1404 1400 1396 1391 1387 1384 1380 1378 1376 1375 1375 1375 1376 1378 1381 1383 1386 1389 1392 1396 1400 1404 1408 1412 1416 1419 1423 1426 1429 1432
1444 1442 1440 1437 1434 1431 1427 1424 1420 1416 1413 1409 1406 1402 1398 1394 1390 1386 1381 1377 1374 1372 1370 1369 1369 1369 1370 1372 1375 1377 1380 1383 1387 1390 1394 1398 1403 1407 1411 1414 1418 1421 1425 1428
1439 1437 1434 1431 1428 1425 1421 1418 1414 1410 1407 1403 1400 1396 1392 1388 1384 1380 1376 1373 1369 1367 1364 1363 1363 1363 1365 1367 1369 1371 1375 1378 1381 1385 1388 1393 1397 1401 1405 1409 1413 1417 1421 1424
1434 1431 1429 1426 1422 1419 1415 1412 1409 1405 1401 1397 1394 1390 1387 1383 1379 1375 1370 1367 1364 1362 1360 1358 1358 1359 1360 1362 1364 1367 1370 1373 1376 1379 1383 1388 1392 1396 1400 1404 1409 1413 1416 1420
1428 1426 1423 1420 1417 1413 1409 1406 1403 1399 1396 1392 1389 1385 1382 1377 1373 1370 1366 1362 1359 1357 1355 1354 1354 1355 1356 1358 1360 1363 1366 1369 1372 1375 1379 1384 1388 1392 1396 1400 1404 1408 1412 1416
1423 1420 1417 1414 1411 1407 1404 1400 1397 1394 1390 1387 1383 1380 1377 1373 1369 1365 1361 1358 1355 1353 1351 1350 1350 1351 1352 1354 1356 1359 1362 1365 1368 1372 1376 1379 1383 1388 1392 1396 1400 1404 1408 1412
1417 1414 1411 1408 1405 1402 1398 1395 1392 1388 1385 1382 1379 1376 1372 1369 1365 1361 1357 1354 1352 1350 1348 1347 1347 1348 1349 1351 1353 1356 1359 1362 1366 1369 1373 1377 1380 1385 1389 1393 1397 1401 1405 1409
1410 1408 1405 1402 1399 1397 1394 1390 1387 1384 1381 1378 1375 1371 1368 1365 1361 1357 1354 1351 1349 1347 1345 1344 1344 1345 1347 1349 1351 1354 1357 1361 1364 1368 1372 1375 1379 1382 1386 1390 1394 1398 1402 1406